SCP
0 0 0 0 0 0 0 0 0 0 0 0 1 1 0 0 0 0 0 0 0 0 1 1 1 1 1 2 2 3 4 5 4 3 2 1 1 1 1 1 1 2 2 2
0 0 0 0 0 0 0 0 0 0 0 0 0 0 0 0 0 0 0 0 0 0 1 1 1 1 1 2 2 2 3 4 4 3 1 1 1 1 1 1 1 2 2 3
0 0 0 0 0 0 0 0 0 0 0 0 0 0 0 0 0 0 0 0 0 0 0 1 1 1 1 1 1 2 2 3 3 2 1 1 1 2 1 1 2 2 2 2
0 0 0 0 0 0 0 0 0 0 0 0 0 0 0 0 1 0 0 0 0 0 0 0 0 1 1 1 1 2 2 2 2 2 1 1 1 2 1 1 2 2 2 2
0 0 0 0 0 0 0 0 0 0 0 0 0 0 0 0 0 0 0 0 0 0 0 0 1 1 1 2 2 2 2 2 1 1 1 1 2 2 1 1 1 1 2 2
0 0 0 0 0 0 0 0 0 0 0 0 0 0 0 0 0 0 0 0 0 0 0 0 1 1 2 2 2 2 1 1 1 1 1 1 2 2 2 1 1 1 1 1
0 0 0 0 0 0 0 0 0 0 0 0 0 0 0 0 0 0 0 0 0 0 0 1 1 2 2 2 2 2 1 1 1 1 1 1 1 2 2 2 2 2 1 1
0 0 0 0 0 0 0 0 0 0 0 0 0 0 0 0 0 0 0 0 0 0 0 1 1 1 2 2 2 2 2 1 1 1 1 1 1 2 2 2 2 2 1 1
0 0 0 0 0 0 0 0 0 0 0 0 0 0 0 0 0 0 0 0 0 0 0 0 1 1 2 2 2 2 2 1 1 1 1 0 1 1 2 2 2 1 1 1
0 0 0 0 0 0 0 0 0 0 0 0 0 0 0 0 0 0 0 0 0 0 0 0 0 1 2 2 1 1 1 1 1 0 0 0 1 1 2 2 2 1 1 0
0 0 0 0 0 0 0 0 0 0 0 0 0 0 0 0 0 0 0 0 0 0 0 0 0 1 1 1 1 1 1 0 0 0 0 1 1 1 1 1 1 1 1 0
0 0 0 0 0 0 0 0 0 0 0 0 0 0 0 0 0 0 0 1 0 0 0 0 0 0 1 1 1 1 1 0 1 1 1 1 1 1 1 0 0 0 0 0
0 0 0 0 0 0 0 0 0 0 0 0 0 0 0 0 0 0 0 0 0 0 0 0 0 0 0 0 1 1 1 1 1 1 1 1 1 1 1 0 0 0 0 0
0 0 0 0 0 0 0 0 0 0 0 0 0 0 0 0 0 0 0 0 0 0 0 0 0 0 0 0 0 0 0 1 1 1 1 1 1 1 1 0 0 0 0 0
0 0 0 0 0 0 0 0 0 0 0 0 0 0 0 0 0 0 0 0 0 0 0 0 0 0 0 0 0 0 0 1 1 1 1 1 1 1 1 1 0 0 0 0
0 0 0 0 0 0 0 0 0 0 0 0 0 0 0 0 0 0 0 0 0 0 0 0 0 0 0 0 0 0 1 0 1 1 1 1 1 1 1 1 1 0 0 0
0 0 0 0 0 0 0 0 0 0 0 0 0 0 0 0 0 0 0 0 1 1 0 0 0 0 0 0 0 0 0 0 0 1 1 1 1 1 1 1 1 1 0 0
0 0 0 0 0 0 0 0 0 0 0 0 0 0 0 0 0 0 0 0 1 1 0 0 0 0 0 0 0 0 0 0 0 0 1 1 1 1 1 1 1 1 0 0
0 0 0 0 0 0 0 0 0 0 0 0 0 0 0 0 0 0 0 0 0 1 0 0 0 0 0 0 0 0 0 0 0 0 0 0 1 1 1 1 1 1 0 0
0 0 0 0 0 0 0 0 0 0 0 0 0 0 0 0 0 0 0 0 0 0 0 0 0 0 0 0 0 0 0 0 0 0 0 1 1 1 1 1 1 1 0 0
0 0 0 0 0 0 0 0 0 0 0 0 0 0 0 0 0 0 0 0 0 0 0 0 0 0 0 0 0 0 0 0 0 0 0 1 1 1 1 1 1 1 0 0
0 0 0 0 0 0 0 0 0 0 0 0 0 0 0 0 0 0 0 0 0 0 0 0 0 0 0 0 0 0 0 0 0 0 0 0 0 0 1 1 1 1 0 0
0 0 0 0 0 0 0 0 0 0 0 0 0 0 0 0 0 0 0 0 0 0 0 0 0 0 0 0 0 0 0 0 0 0 0 0 0 0 0 0 1 0 0 0
0 0 0 0 0 0 0 0 0 0 0 0 0 0 0 0 0 0 0 0 0 0 0 0 0 0 0 0 0 0 0 0 0 0 0 0 0 0 0 0 0 0 0 0
0 0 0 0 0 0 0 0 0 0 0 0 0 0 0 0 0 0 0 0 0 0 0 0 0 0 0 0 0 0 0 0 0 0 0 0 0 0 0 0 0 0 0 0
0 0 0 0 0 0 0 0 0 0 0 0 0 0 0 0 0 0 0 0 0 0 0 0 0 0 0 0 0 0 0 0 0 0 0 0 0 0 0 0 0 0 0 0
0 0 0 0 0 0 0 0 0 0 0 0 0 0 0 0 0 0 0 0 0 0 0 0 0 0 0 0 0 0 0 0 0 0 0 0 0 0 0 0 0 0 0 0
Wind_Speed
6 4 4 6 7 7 10 10 10 8 7 4 3 2 2 1 2 2 3 4 4 4 3 3 3 2 2 2 2 2 2 2 2 2 1 1 2 2 2 1 1 1 1 1
5 4 5 7 6 7 8 8 9 9 7 3 2 1 1 1 2 3 2 3 4 4 4 4 3 3 3 3 2 3 3 2 2 1 1 1 1 1 1 1 1 1 1 1
5 3 6 7 6 6 6 5 6 8 5 2 2 2 2 3 2 2 2 2 3 4 4 4 4 4 3 3 3 3 3 2 2 2 2 2 1 1 2 2 1 1 1 1
4 5 8 1 2 2 4 3 4 4 3 3 3 3 2 2 2 2 2 3 3 3 3 3 3 3 3 3 3 3 3 3 2 3 2 2 2 2 2 1 1 2 1 1
4 6 6 2 1 2 4 4 2 3 3 4 3 3 1 1 2 3 3 3 2 2 3 3 3 3 3 3 3 3 3 3 3 3 3 3 2 2 2 2 2 2 2 2
5 6 5 1 2 1 4 4 1 2 3 3 3 4 1 2 2 2 2 1 1 1 1 2 2 2 3 3 3 3 3 3 3 3 3 3 3 2 2 2 2 2 2 2
7 7 4 3 1 2 5 2 2 2 2 2 3 4 3 2 2 2 1 1 0 0 0 1 2 3 3 3 3 2 2 2 2 2 3 3 2 3 3 2 2 2 2 2
6 7 4 3 2 2 3 4 2 2 2 3 3 3 2 1 1 1 1 1 0 0 0 0 2 3 3 3 2 2 2 2 2 2 2 2 2 3 3 3 3 3 2 2
4 2 3 2 1 2 4 3 3 3 3 3 3 3 2 2 1 1 0 1 1 1 1 1 1 2 2 2 2 3 3 3 2 2 2 2 3 3 3 3 2 2 2 2
5 4 2 2 3 3 3 4 3 3 3 3 3 2 2 2 1 1 1 1 1 1 1 1 1 1 2 1 2 3 3 2 2 2 2 2 2 3 3 3 3 3 3 2
6 4 3 4 4 4 3 3 3 3 3 2 2 2 2 1 1 1 1 1 1 1 1 1 1 1 1 1 2 3 2 2 2 1 2 2 1 1 2 2 2 3 3 3
5 3 4 4 3 4 4 4 3 2 2 2 2 1 1 1 1 1 1 1 1 1 1 1 1 1 1 1 2 2 2 2 1 1 1 1 1 1 2 1 2 2 3 3
5 4 4 4 4 4 4 4 3 3 2 2 2 1 1 1 1 1 1 1 1 1 2 2 2 1 1 1 2 2 2 2 1 1 1 2 2 2 1 1 1 0 1 2
4 4 4 4 4 4 4 4 3 3 2 2 2 2 1 1 1 1 1 1 1 1 1 1 1 1 1 1 2 2 2 1 1 1 1 1 2 2 2 1 1 0 0 1
5 5 4 4 3 3 3 2 2 2 2 1 1 2 2 2 2 1 1 1 2 1 1 1 1 1 1 1 2 2 2 1 1 1 1 1 1 1 1 1 1 1 0 0
5 4 3 3 3 3 3 3 3 2 2 2 2 2 2 2 1 1 1 1 2 2 1 1 2 2 1 2 2 2 1 1 1 1 1 1 1 2 1 1 1 1 1 1
5 5 4 5 4 4 4 4 3 3 3 3 2 2 2 2 1 1 1 2 2 2 2 2 2 2 2 2 2 2 2 2 2 2 2 2 2 2 2 2 2 1 1 1
6 5 5 5 5 4 4 3 3 2 3 2 2 2 2 2 2 2 2 2 2 2 1 1 1 2 2 2 2 2 2 2 2 2 2 2 2 2 2 2 2 2 2 1
5 4 4 3 3 3 2 2 2 1 1 1 2 3 2 2 2 2 2 2 3 3 2 2 2 2 2 2 1 2 2 2 2 2 2 2 3 3 3 3 2 2 2 2
3 3 2 2 2 2 2 2 1 1 1 2 2 2 2 2 2 2 2 2 2 2 2 2 2 2 2 2 2 2 2 3 3 2 2 3 3 3 3 3 3 2 2 2
3 2 2 2 1 1 1 1 1 1 1 2 2 2 2 2 2 2 2 2 1 2 2 1 2 1 2 1 3 2 2 3 3 3 3 3 3 3 3 3 3 3 3 3
2 2 2 2 2 1 1 1 1 1 1 2 2 2 2 2 2 2 3 2 2 1 2 2 2 1 1 2 2 2 3 3 3 3 3 3 3 3 3 3 3 3 3 3
2 2 2 2 2 1 1 1 1 1 2 2 2 2 3 2 2 2 2 2 2 2 3 2 2 2 3 3 3 3 3 3 3 3 3 3 3 3 3 3 3 3 3 3
2 1 1 1 1 2 2 1 2 2 2 2 2 2 3 2 2 2 2 2 3 3 3 2 3 3 4 3 3 3 3 3 3 3 3 3 3 3 3 3 3 3 3 4
1 1 1 2 2 2 2 1 1 1 2 2 2 2 2 2 2 2 3 3 3 3 3 3 3 4 4 3 3 4 4 3 3 3 4 3 3 3 3 3 3 3 3 4
2 1 1 2 1 1 1 1 1 2 2 2 2 2 2 2 2 3 2 3 4 3 3 2 3 3 3 3 4 4 4 4 4 4 4 4 4 4 4 4 4 4 3 4
2 1 1 1 1 1 1 2 2 2 2 3 3 3 2 2 2 2 3 3 2 2 2 2 2 3 3 3 4 4 4 4 3 4 4 4 4 4 4 5 4 4 3 3
Wind_Direction
274 276 246 249 248 233 239 252 260 266 267 278 297 288 296 260 180 178 184 183 183 185 184 181 183 177 176 177 184 192 192 203 215 218 215 206 196 192 186 204 216 219 228 241
247 237 240 249 251 240 238 249 252 258 264 306 317 288 282 261 207 201 200 207 203 202 203 204 201 199 197 197 202 204 200 202 203 192 174 187 201 191 179 200 217 222 239 256
247 240 245 242 245 240 229 235 244 251 263 296 287 275 278 274 236 221 224 229 230 222 218 213 213 208 206 206 206 211 204 192 185 184 184 192 190 178 184 199 208 235 252 275
262 245 244 70 58 235 221 233 253 268 292 287 286 283 298 299 270 252 246 241 238 238 231 229 218 211 209 210 206 212 205 194 184 186 194 197 200 197 200 201 212 233 241 254
244 253 260 209 194 223 233 238 265 260 280 303 305 254 217 46 317 286 262 255 250 249 238 226 218 213 210 212 206 210 211 210 199 198 201 202 202 203 209 208 213 235 236 239
235 251 255 40 68 308 245 227 73 296 287 300 289 260 290 6 322 314 312 297 273 227 231 222 212 205 206 206 207 213 213 217 212 207 210 214 209 200 205 207 212 228 226 236
240 248 256 39 60 208 235 1 30 305 291 275 272 305 334 340 332 345 344 319 322 250 249 223 201 194 198 201 208 207 207 212 205 206 209 215 213 201 197 197 210 228 229 242
232 240 240 83 144 221 339 7 339 307 291 281 297 326 323 315 326 357 340 312 306 164 92 175 194 199 200 200 200 196 196 198 199 202 209 206 200 198 200 191 205 219 225 232
250 270 38 118 193 332 332 320 325 319 317 303 301 315 309 277 258 236 271 256 246 170 139 146 179 210 203 197 203 199 194 197 200 198 204 201 199 194 198 200 211 221 226 234
246 244 270 260 266 292 308 312 318 310 302 279 285 295 292 271 252 258 266 235 223 197 188 158 176 206 217 204 203 204 198 197 200 198 198 202 205 207 207 209 218 224 227 237
248 254 263 251 262 283 296 301 307 306 291 275 277 278 290 286 274 275 268 252 225 207 217 223 187 189 207 206 200 193 191 191 199 197 188 190 193 224 235 239 263 256 239 238
260 256 257 268 278 277 275 275 277 281 284 274 276 271 276 278 288 266 242 214 233 238 231 220 193 186 191 194 203 194 186 183 189 187 191 183 178 148 43 350 351 325 312 293
282 292 288 291 285 277 272 276 276 266 263 263 271 274 271 267 245 227 219 222 233 237 241 221 193 192 184 187 204 199 196 192 190 192 191 196 195 198 188 71 67 51 349 329
257 261 264 268 277 280 280 280 278 264 260 253 260 257 248 244 242 238 244 255 255 244 227 212 201 211 207 193 210 218 206 181 190 197 197 208 219 219 212 217 233 243 39 1
239 250 262 274 271 271 278 273 260 255 257 260 261 250 244 242 240 252 267 267 257 241 216 213 218 234 221 215 220 222 214 197 193 197 202 212 230 233 226 230 245 254 279 74
241 246 245 248 252 260 262 256 251 253 256 259 258 256 263 261 254 252 253 248 239 227 223 231 244 252 221 223 227 224 212 177 232 218 209 213 224 231 233 239 249 256 271 302
234 239 239 244 245 247 254 258 259 252 251 253 257 256 258 259 246 238 252 252 242 235 234 238 247 242 221 222 226 225 213 187 202 221 215 214 223 233 235 237 244 253 261 351
245 249 243 243 243 243 251 262 263 252 247 252 249 244 244 249 250 252 256 255 243 243 247 254 255 245 222 223 230 227 216 210 214 222 221 219 226 230 235 237 243 252 264 208
245 247 242 245 247 243 244 255 264 261 252 234 233 240 246 252 259 260 251 243 243 247 259 267 275 250 237 235 242 221 219 217 218 222 223 216 223 226 229 233 239 245 252 248
231 236 234 239 239 234 236 242 246 247 246 232 238 249 252 251 250 255 251 246 249 274 278 276 247 246 246 225 232 230 219 220 223 225 231 231 231 233 233 238 242 245 249 253
208 211 214 221 235 250 247 232 222 234 248 241 246 257 267 267 251 247 246 247 257 286 284 261 254 255 246 242 222 230 226 227 228 228 230 232 233 234 235 237 240 244 246 250
210 209 213 219 223 237 252 243 232 248 257 255 258 264 265 259 252 248 243 257 272 280 266 249 251 266 264 239 223 230 230 233 235 234 235 237 238 240 242 245 246 247 249 253
220 218 223 229 228 235 237 236 239 244 250 254 255 260 263 268 258 253 255 264 265 269 264 255 266 252 242 235 230 231 231 231 234 234 235 238 238 240 243 245 248 251 252 253
210 212 223 223 210 211 222 242 252 260 266 267 262 267 269 267 266 263 273 263 261 263 258 250 243 241 240 237 231 232 234 235 237 240 241 242 243 245 248 248 248 251 254 257
216 212 204 199 208 221 233 241 246 258 273 272 268 268 272 275 280 282 271 265 265 256 255 237 230 241 242 238 235 237 238 239 241 243 241 243 243 245 247 247 249 252 255 257
216 218 218 225 231 231 226 230 241 258 268 273 276 275 276 274 270 273 271 264 263 263 260 255 244 239 245 245 244 242 242 240 237 240 244 246 246 245 246 248 251 253 256 257
217 218 215 222 230 228 229 234 241 251 258 262 269 271 269 265 261 264 266 266 267 262 259 257 254 251 251 247 246 245 243 243 243 243 244 244 245 244 245 248 252 254 256 258